• Join FlightAware (Why Join?)
  • Login
  • US Flag GB Flag 
08:32 EDT


 

Airport Tracker/Info


-or-


 

Live Flight TrackerFlight Track Log ✈ GJS3710 ✈ 06-May-2013 ✈ KORD - KALB

Flight Track Log - Related Links

Times and Time Zones

All times are in EDT time to prevent confusion due to time zone crossing. See the GJS3710 flight status page for this flight to view local times or setup timezone preferences in your user account.

Time Position Orientation Groundspeed Altitude Reporting Facility
EDT Latitude Longitude Course Direction KTS MPH feet Rate Location/Type
21:46 41.9833 -87.8500 66° East 176 203 2,300  Level Chicago TRACON
21:48 41.9992 -87.7167 81° East 253 291 6,200 2,760 Climbing Chicago Center
21:49 42.1506 -87.3982 66° East  Level FlightAware Approximate
21:49 42.0450 -87.6128 59° Northeast 270 311 9,900  Level Chicago Center
21:50 42.1942 -87.2676 66° East  Level FlightAware Approximate
21:50 42.0875 -87.5106 61° Northeast 329 379 11,300  Level Chicago Center
21:51 42.2377 -87.1369 66° East  Level FlightAware Approximate
21:51 42.1381 -87.3950 59° Northeast 360 414 12,700  Level Chicago Center
21:52 42.1833 -87.2647 65° Northeast 390 449 14,600 1,920 Climbing Chicago Center
21:53 42.1911 -87.1136 86° East 404 465 16,700 1,740 Climbing Chicago Center
21:54 42.1992 -86.9611 86° East 409 471 18,200 1,560 Climbing Chicago Center
21:56 42.1877 -86.7090 93° East  Level FlightAware Approximate
21:56 42.2136 -86.6078 93° East 437 503 21,500  Level Chicago Center
21:57 42.2211 -86.4406 86° East 445 512 23,000 1,440 Climbing Chicago Center
21:58 42.2275 -86.2739 87° East 445 512 24,500 1,380 Climbing Chicago Center
21:59 42.2342 -86.1069 87° East 446 513 25,900 1,260 Climbing Chicago Center
22:00 42.2394 -85.9544 87° East 444 511 27,100 1,200 Climbing Chicago Center
22:01 42.2467 -85.7886 87° East 444 511 28,400 1,200 Climbing Chicago Center
22:02 42.2533 -85.5892 87° East 448 516 29,600 1,080 Climbing Chicago Center
22:03 42.2575 -85.4222 88° East 448 516 30,600 960 Climbing Chicago Center
22:04 42.2636 -85.2947 86° East 450 518 31,400 1,020 Climbing Cleveland Center
22:05 42.2703 -85.1267 87° East 450 518 32,400 960 Climbing Cleveland Center
22:06 42.2767 -84.9644 87° East 438 504 33,400 900 Climbing Cleveland Center
22:07 42.2806 -84.8017 88° East 438 504 34,200 840 Climbing Cleveland Center
22:08 42.2797 -84.6531 90° East 438 504 35,100 900 Climbing Cleveland Center
22:09 42.2833 -84.4903 88° East 438 504 36,000 600 Climbing Cleveland Center
22:11 42.3292 -84.1700 79° East 438 504 37,000 300 Climbing Cleveland Center
22:12 42.3508 -84.0056 80° East 438 504 37,000  Level Cleveland Center
22:13 42.3744 -83.8436 79° East 443 510 37,000  Level Cleveland Center
22:15 42.4083 -83.5108 82° East 443 510 37,000  Level Cleveland Center
22:17 42.4250 -83.1597 86° East 443 510 37,000  Level Cleveland Center
22:18 42.4286 -82.9939 88° East 443 510 37,000  Level Cleveland Center
22:19 42.4342 -82.8281 87° East 437 503 37,000  Level Cleveland Center
22:20 42.4392 -82.6622 88° East 437 503 37,000  Level Cleveland Center
22:21 42.4444 -82.4936 88° East 437 503 37,000  Level Cleveland Center
22:22 42.4469 -82.3278 89° East 437 503 37,000  Level Cleveland Center
22:23 42.4514 -82.1589 88° East 437 503 37,000  Level Cleveland Center
22:24 42.4558 -81.9903 88° East 437 503 37,000  Level Cleveland Center
22:25 42.4597 -81.8242 88° East 442 509 37,000  Level Cleveland Center
22:26 42.4656 -81.6725 87° East 442 509 37,000  Level Cleveland Center
22:27 42.4689 -81.5064 88° East 442 509 37,000  Level Cleveland Center
22:28 42.4703 -81.3347 89° East 442 509 37,000  Level Cleveland Center
22:29 42.4733 -81.1517 89° East 442 509 37,000  Level Cleveland Center
22:30 42.4783 -80.9772 88° East 442 509 37,000  Level Cleveland Center
22:31 42.4808 -80.8083 89° East 442 509 37,000  Level Cleveland Center
22:32 42.4853 -80.6394 88° East 442 509 37,000  Level Cleveland Center
22:33 42.4997 -80.4733 83° East 442 509 37,000  Level Cleveland Center
22:34 42.5078 -80.2986 86° East 447 514 37,000  Level Cleveland Center
22:35 42.5219 -80.1269 84° East 453 521 37,000  Level Cleveland Center
22:37 42.5431 -79.8083 85° East 448 516 37,000  Level Cleveland Center
22:38 42.5522 -79.6361 86° East 448 516 37,000  Level Cleveland Center
22:39 42.5611 -79.4669 86° East 448 516 37,000  Level Cleveland Center
22:41 42.5844 -79.1225 85° East 453 521 37,000  Level Cleveland Center
22:42 42.5903 -78.9503 87° East 453 521 37,000 -180 Level Cleveland Center
22:43 42.6003 -78.7781 85° East 458 527 36,700 -720 Descending Cleveland Center
22:45 42.6172 -78.4303 86° East 465 535 35,000 -600 Descending Cleveland Center
22:46 42.6264 -78.2550 86° East 465 535 35,000  Level Cleveland Center
22:47 42.6331 -78.0800 87° East 465 535 35,000  Level Cleveland Center
22:48 42.6417 -77.9044 86° East 465 535 35,000  Level Cleveland Center
22:49 42.6517 -77.7092 86° East 465 535 35,000 -600 Level Cleveland Center
22:50 42.6575 -77.5339 87° East 470 541 33,900 -1,620 Descending Cleveland Center
22:52 42.6725 -77.1286 87° East 477 549 29,800 -1,560 Descending Boston Center
22:53 42.6775 -76.9539 88° East 472 543 29,000 -420 Descending Boston Center
22:54 42.6844 -76.7792 87° East 467 537 29,000  Level Boston Center
22:55 42.6911 -76.6017 87° East 462 532 29,000  Level Boston Center
22:56 42.6975 -76.4239 87° East 462 532 29,000  Level Boston Center
22:57 42.7033 -76.2492 87° East 462 532 29,000  Level Boston Center
22:58 42.7064 -76.0939 88° East 456 525 29,000  Level Boston Center
22:59 42.7119 -75.9217 87° East 456 525 29,000  Level Boston Center
23:00 42.7169 -75.7494 88° East 456 525 29,000 -300 Level Boston Center
23:01 42.7222 -75.5689 88° East 462 532 28,500 -1,800 Descending Boston Center
23:02 42.7225 -75.3964 90° East 456 525 25,500 -2,820 Descending Boston Center
23:03 42.7286 -75.2328 87° East 445 512 22,900 -2,580 Descending Boston Center
23:04 42.7306 -75.0661 89° East 439 505 20,400 -2,520 Descending Boston Center
23:05 42.7361 -74.9108 87° East 434 499 17,900 -2,640 Descending Boston Center
23:05 42.7356 -74.8486 91° East 407 468 16,900 -2,700 Descending Boston Center
23:06 42.7375 -74.7469 88° East 414 476 15,200 -2,400 Descending Boston Center
23:07 42.7381 -74.6139 90° East 381 438 12,900 -2,160 Descending Boston Center
23:08 42.7533 -74.4731 82° East 359 413 11,100 -1,560 Descending Boston Center
23:09 42.7761 -74.3581 75° East 296 341 9,900 -1,500 Descending Boston Center
23:10 42.7986 -74.2539 74° East 282 325 8,100 -1,740 Descending Boston Center
23:11 42.8147 -74.1525 78° East 276 318 6,400 -1,740 Descending Boston Center
23:12 42.8328 -74.0567 76° East 271 312 4,600 -1,800 Descending Boston Center
23:13 42.8489 -73.9581 77° East 271 312 2,800 -1,140 Descending Boston Center
23:14 42.8564 -73.8478 85° East 214 246 2,200 -540 Descending Boston Center
23:15 42.8236 -73.8131 142° Southeast 147 169 1,700 -540 Descending Boston Center